Location: *
(49.0044°N, 9.5056°E)
Time: 10:46:22
(UTC+00:00)

Terra - Pass Details

Date: 22 September 2019
Orbit: 701 x 703 km, 98.2° (Epoch: 22 October)

Event Time Altitude Azimuth Distance (km) Brightness Sun altitude
Exits shadow 21:21:08 26° 342° (NNW) 1,372 3.8 -35.1°
Drops below altitude 10° 21:23:13 10° 345° (NNW) 2,182 5.1 -35.3°
Sets 21:25:29 0° 346° (NNW) 3,105 6.0 -35.5°
